Tracking 18633 objects as of 23-April-2017
HD Live streaming from Space Station
objects crossing your sky now

BREEZE-M DEB

Track BREEZE-M DEB now!
10-day predictions


NORAD ID: 36958
Int'l Code: 2006-006CQ
Perigee: -6,371.0 km
Apogee: -6,371.0 km
Inclination: 51.8 °
Period: 0.0 minutes
Semi major axis: 0 km
RCS: 0.0224 m2 (small)
Launch date: February 28, 2006
Source: Commonwealth of Independent States (former USSR) (CIS)
Launch site: TYURATAM MISSILE AND SPACE COMPLEX (TTMTR)

Note: This is SATELLITE DEBRIS
Your satellite tracking list
Your tracking list is empty





NASA's NSSDC Master Catalog

Two Line Element Set (TLE):
1 36958U 06006CQ  17112.80999399 +.00011991 +00000-0 +69514-2 0  9999
2 36958 051.7659 246.4250 4830157 139.0821 269.6806 05.77747581176564
Source of the keplerian elements: AFSPC